Location: Moscow Pond
(43.6842°N, 73.2366°W)
Time: 00:35:22
(UTC+00:00)

Cosmos 2360 Rocket - Pass Details

Date: 08 November 2025
Orbit: 833 x 843 km, 71.0° (Epoch: 05 December)

Event Time Altitude Azimuth Distance (km) Brightness Sun altitude
Exits shadow 09:04:31 22° 354° (N) 1,775 3.8 -28.0°
Drops below altitude 10° 09:06:48 10° 10° (N) 2,472 4.7 -27.6°
Sets 09:09:29 0° 19° (NNE) 3,410 5.6 -27.1°
